TimeEDT,TemperatureF,Dew PointF,Humidity,Sea Level PressureIn,VisibilityMPH,Wind Direction,Wind SpeedMPH,Gust SpeedMPH,PrecipitationIn,Events,Conditions,WindDirDegrees,DateUTC
12:03 AM,60.8,60.8,100,30.00,0.8,Calm,Calm,-,N/A,,Clear,0,2013-09-27 04:03:00
12:08 AM,60.8,60.8,100,30.00,0.5,Calm,Calm,-,N/A,Fog,Fog,0,2013-09-27 04:08:00
12:28 AM,60.8,60.8,100,30.00,0.2,Calm,Calm,-,N/A,Fog,Fog,0,2013-09-27 04:28:00
12:40 AM,60.8,60.8,100,30.00,0.2,Calm,Calm,-,N/A,Fog,Fog,0,2013-09-27 04:40:00
12:58 AM,61.2,60.8,99,30.01,0.2,Calm,Calm,-,N/A,Fog,Fog,0,2013-09-27 04:58:00
1:13 AM,60.8,60.8,100,30.00,0.5,Calm,Calm,-,N/A,Fog,Fog,0,2013-09-27 05:13:00
1:23 AM,60.8,60.8,100,29.99,0.2,Calm,Calm,-,N/A,Fog,Fog,0,2013-09-27 05:23:00
1:33 AM,60.8,59.0,94,29.99,0.5,NW,2.3,-,N/A,Fog,Fog,320,2013-09-27 05:33:00
1:43 AM,60.8,60.8,100,30.00,0.2,NW,2.3,-,N/A,Fog,Fog,320,2013-09-27 05:43:00
1:53 AM,60.8,60.8,100,30.00,0.5,Calm,Calm,-,N/A,Fog,Fog,0,2013-09-27 05:53:00
1:58 AM,60.3,59.9,99,30.01,0.5,Calm,Calm,-,N/A,Fog,Fog,0,2013-09-27 05:58:00
2:03 AM,60.8,59.0,94,30.00,0.2,Calm,Calm,-,N/A,Fog,Fog,0,2013-09-27 06:03:00
2:08 AM,60.8,59.0,94,29.99,0.5,Calm,Calm,-,N/A,Fog,Fog,0,2013-09-27 06:08:00
2:23 AM,60.8,60.8,100,29.99,0.2,NNW,2.3,-,N/A,Fog,Fog,330,2013-09-27 06:23:00
2:43 AM,59.0,59.0,100,29.99,0.5,Calm,Calm,-,N/A,Fog,Fog,0,2013-09-27 06:43:00
2:52 AM,60.8,59.0,94,29.99,0.5,Calm,Calm,-,N/A,Fog,Fog,0,2013-09-27 06:52:00
2:58 AM,59.9,59.5,99,30.00,0.5,NNW,2.3,-,N/A,Fog,Fog,330,2013-09-27 06:58:00
3:23 AM,59.0,59.0,100,29.99,0.8,NNW,3.5,-,N/A,,Mist,340,2013-09-27 07:23:00
3:28 AM,59.0,59.0,100,29.99,0.8,NNW,3.5,-,N/A,,Mist,340,2013-09-27 07:28:00
3:33 AM,59.0,59.0,100,29.99,0.5,NNW,3.5,-,N/A,Fog,Fog,340,2013-09-27 07:33:00
3:38 AM,59.0,59.0,100,29.99,0.8,NNW,2.3,-,N/A,,Mist,340,2013-09-27 07:38:00
3:43 AM,59.0,59.0,100,29.99,0.5,NW,2.3,-,N/A,Fog,Fog,320,2013-09-27 07:43:00
3:48 AM,59.0,59.0,100,29.99,0.2,NW,2.3,-,N/A,Fog,Fog,310,2013-09-27 07:48:00
3:58 AM,58.8,58.6,99,30.00,0.2,NW,3.5,-,N/A,Fog,Fog,310,2013-09-27 07:58:00
4:03 AM,59.0,59.0,100,29.99,0.5,NW,2.3,-,N/A,Fog,Fog,310,2013-09-27 08:03:00
4:08 AM,59.0,59.0,100,29.99,0.8,NW,3.5,-,N/A,,Mist,310,2013-09-27 08:08:00
4:13 AM,59.0,59.0,100,29.99,1.0,NW,3.5,-,N/A,,Mist,320,2013-09-27 08:13:00
4:18 AM,59.0,59.0,100,30.00,1.2,NW,2.3,-,N/A,,Partly Cloudy,310,2013-09-27 08:18:00
4:28 AM,59.0,59.0,100,30.00,1.0,NW,2.3,-,N/A,,Clear,310,2013-09-27 08:28:00
4:38 AM,59.0,59.0,100,30.00,0.8,NW,1.2,-,N/A,,Clear,320,2013-09-27 08:38:00
4:43 AM,59.0,59.0,100,30.00,0.8,Calm,Calm,-,N/A,,Clear,0,2013-09-27 08:43:00
4:48 AM,59.0,59.0,100,30.00,0.8,Calm,Calm,-,N/A,,Clear,0,2013-09-27 08:48:00
4:53 AM,59.0,59.0,100,30.00,0.5,Calm,Calm,-,N/A,Fog,Fog,0,2013-09-27 08:53:00
4:54 AM,59.0,59.0,100,30.00,0.5,Calm,Calm,-,N/A,Fog,Fog,0,2013-09-27 08:54:00
4:58 AM,58.5,58.1,99,30.01,0.5,Calm,Calm,-,N/A,Fog,Fog,0,2013-09-27 08:58:00
5:03 AM,59.0,57.2,94,30.00,0.2,Calm,Calm,-,N/A,Fog,Fog,0,2013-09-27 09:03:00
5:18 AM,59.0,57.2,94,30.01,0.5,Calm,Calm,-,N/A,Fog,Fog,0,2013-09-27 09:18:00
5:23 AM,59.0,57.2,94,30.01,0.5,Calm,Calm,-,N/A,Fog,Fog,0,2013-09-27 09:23:00
5:28 AM,59.0,59.0,100,30.01,0.2,Calm,Calm,-,N/A,Fog,Fog,0,2013-09-27 09:28:00
5:38 AM,59.0,59.0,100,30.01,0.5,Calm,Calm,-,N/A,Fog,Fog,0,2013-09-27 09:38:00
5:43 AM,57.2,57.2,100,30.01,0.8,Calm,Calm,-,N/A,,Clear,0,2013-09-27 09:43:00
5:48 AM,57.2,57.2,100,30.01,1.2,Calm,Calm,-,N/A,,Clear,0,2013-09-27 09:48:00
5:53 AM,57.2,57.2,100,30.01,1.8,Calm,Calm,-,N/A,,Clear,0,2013-09-27 09:53:00
5:58 AM,59.0,57.2,94,30.02,1.0,Calm,Calm,-,N/A,,Clear,0,2013-09-27 09:58:00
6:03 AM,59.0,57.2,94,30.01,0.8,Calm,Calm,-,N/A,,Clear,0,2013-09-27 10:03:00
6:13 AM,59.0,57.2,94,30.01,1.0,Calm,Calm,-,N/A,,Clear,0,2013-09-27 10:13:00
6:18 AM,59.0,57.2,94,30.02,1.2,NNW,1.2,-,N/A,,Clear,330,2013-09-27 10:18:00
6:23 AM,59.0,57.2,94,30.02,2.0,NNW,3.5,-,N/A,,Clear,330,2013-09-27 10:23:00
6:28 AM,59.0,57.2,94,30.02,6.0,NNW,3.5,-,N/A,,Clear,330,2013-09-27 10:28:00
6:53 AM,57.2,57.2,100,30.03,5.0,NNW,2.3,-,N/A,,Clear,330,2013-09-27 10:53:00
6:58 AM,57.2,57.2,100,30.04,2.5,NW,3.5,-,N/A,,Clear,320,2013-09-27 10:58:00
7:03 AM,57.2,57.2,100,30.04,1.8,NW,3.5,-,N/A,,Clear,320,2013-09-27 11:03:00
7:08 AM,57.2,57.2,100,30.04,1.5,NW,3.5,-,N/A,,Clear,320,2013-09-27 11:08:00
7:13 AM,57.2,57.2,100,30.04,0.5,Calm,Calm,-,N/A,Fog,Fog,0,2013-09-27 11:13:00
7:23 AM,57.2,57.2,100,30.04,0.2,Calm,Calm,-,N/A,Fog,Fog,0,2013-09-27 11:23:00
7:28 AM,57.2,57.2,100,30.04,0.2,NW,1.2,-,N/A,Fog,Fog,310,2013-09-27 11:28:00
7:58 AM,57.6,57.6,100,30.06,0.2,West,3.5,-,N/A,Fog,Fog,280,2013-09-27 11:58:00
8:08 AM,59.0,59.0,100,30.06,0.2,West,3.5,-,N/A,Fog,Fog,270,2013-09-27 12:08:00
8:13 AM,59.0,59.0,100,30.06,0.5,West,2.3,-,N/A,Fog,Fog,280,2013-09-27 12:13:00
8:18 AM,59.0,59.0,100,30.07,0.5,WNW,1.2,-,N/A,Fog,Fog,300,2013-09-27 12:18:00
8:28 AM,60.8,60.8,100,30.07,0.8,WNW,3.5,-,N/A,,Clear,300,2013-09-27 12:28:00
8:33 AM,60.8,60.8,100,30.07,1.2,NW,2.3,-,N/A,,Clear,310,2013-09-27 12:33:00
8:38 AM,60.8,60.8,100,30.07,1.8,WNW,2.3,-,N/A,,Clear,300,2013-09-27 12:38:00
8:43 AM,60.8,60.8,100,30.07,2.5,Variable,1.2,-,N/A,,Clear,0,2013-09-27 12:43:00
8:58 AM,61.7,61.7,100,30.09,2.5,Variable,3.5,-,0.01,,Clear,0,2013-09-27 12:58:00
9:03 AM,62.6,62.6,100,30.08,3.0,Variable,2.3,-,N/A,,Clear,0,2013-09-27 13:03:00
9:58 AM,66.9,66.6,99,30.10,10.0,Variable,2.3,-,N/A,,Clear,0,2013-09-27 13:58:00
10:58 AM,72.7,60.4,65,30.11,10.0,ENE,4.6,-,N/A,,Clear,70,2013-09-27 14:58:00
11:58 AM,75.6,59.7,58,30.11,10.0,NE,9.2,-,N/A,,Clear,50,2013-09-27 15:58:00
12:58 PM,77.5,61.3,57,30.09,10.0,NNE,9.2,-,N/A,,Partly Cloudy,20,2013-09-27 16:58:00
1:58 PM,79.2,59.0,50,30.06,10.0,NE,10.4,-,N/A,,Clear,50,2013-09-27 17:58:00
2:58 PM,80.1,59.0,48,30.05,10.0,NNE,6.9,-,N/A,,Clear,30,2013-09-27 18:58:00
3:58 PM,80.4,56.7,44,30.03,10.0,NE,9.2,-,N/A,,Clear,40,2013-09-27 19:58:00
4:58 PM,81.0,55.4,41,30.03,10.0,NE,6.9,-,N/A,,Clear,40,2013-09-27 20:58:00
5:58 PM,80.2,55.9,43,30.03,10.0,ENE,5.8,-,N/A,,Clear,60,2013-09-27 21:58:00
6:58 PM,77.7,57.9,50,30.04,10.0,NE,4.6,-,N/A,,Clear,40,2013-09-27 22:58:00
7:58 PM,68.7,61.0,76,30.05,10.0,East,2.3,-,N/A,,Clear,90,2013-09-27 23:58:00
8:58 PM,62.6,61.5,96,30.07,10.0,Calm,Calm,-,N/A,,Clear,0,2013-09-28 00:58:00
9:58 PM,60.1,59.9,99,30.09,10.0,Calm,Calm,-,N/A,,Clear,0,2013-09-28 01:58:00
10:08 PM,60.8,60.8,100,30.08,7.0,Calm,Calm,-,N/A,,Clear,0,2013-09-28 02:08:00
10:23 PM,60.8,60.8,100,30.08,10.0,Calm,Calm,-,N/A,,Clear,0,2013-09-28 02:23:00
10:28 PM,60.8,59.0,94,30.09,8.0,Calm,Calm,-,N/A,,Clear,0,2013-09-28 02:28:00
10:48 PM,59.0,59.0,100,30.09,4.0,Calm,Calm,-,N/A,,Clear,0,2013-09-28 02:48:00
10:58 PM,60.1,59.7,99,30.11,5.0,Calm,Calm,-,N/A,,Clear,0,2013-09-28 02:58:00
11:38 PM,60.8,59.0,94,30.10,10.0,East,1.2,-,N/A,,Clear,100,2013-09-28 03:38:00
11:43 PM,59.0,59.0,100,30.10,8.0,Calm,Calm,-,N/A,,Clear,0,2013-09-28 03:43:00
11:53 PM,59.0,59.0,100,30.09,1.2,Calm,Calm,-,N/A,,Clear,0,2013-09-28 03:53:00
11:58 PM,59.0,59.0,100,30.10,0.8,Calm,Calm,-,N/A,,Clear,0,2013-09-28 03:58:00